JBU1484 KRDU-KBOS

Flight info

Callsign JBU1484
Flight time N/A
Altitude 35000
Route BEXGO5 BOUSY GEARS BBOBO Q22 RBV Q419 JFK ROBUC3
Aircraft A320/M-SDE3FGHIRWY/LB1

Departure

Time 2026-05-07 00:27
Airport Raleigh-Durham International Airport (KRDU)

Arrival

Time N/A
Airport Boston Logan International Airport (KBOS)
Time Latitude Longitude Altitude Speed Heading
2026-05-06 23:49 35.87504 -78.79586 392 ft 0 kts 316°
2026-05-07 00:04 35.87494 -78.79573 392 ft 3 kts 304°
2026-05-07 00:05 35.87486 -78.79553 392 ft 3 kts 272°
2026-05-07 00:05 35.87487 -78.79531 392 ft 3 kts 242°
2026-05-07 00:05 35.87495 -78.79515 392 ft 0 kts 226°
2026-05-07 00:09 35.87479 -78.79536 392 ft 8 kts 225°
2026-05-07 00:09 35.87427 -78.79601 392 ft 12 kts 225°
2026-05-07 00:09 35.87436 -78.79692 392 ft 14 kts 314°
2026-05-07 00:09 35.87485 -78.79752 391 ft 7 kts 315°
2026-05-07 00:10 35.87519 -78.79785 391 ft 6 kts 339°
2026-05-07 00:10 35.87537 -78.79784 391 ft 0 kts 14°
2026-05-07 00:12 35.87540 -78.79783 391 ft 2 kts 17°
2026-05-07 00:12 35.87568 -78.79752 391 ft 9 kts 45°
2026-05-07 00:12 35.87624 -78.79682 391 ft 13 kts 45°
2026-05-07 00:12 35.87694 -78.79596 392 ft 15 kts 45°
2026-05-07 00:13 35.87773 -78.79499 392 ft 17 kts 45°
2026-05-07 00:13 35.87828 -78.79431 392 ft 4 kts 45°
2026-05-07 00:13 35.87857 -78.79395 392 ft 11 kts 45°
2026-05-07 00:13 35.87925 -78.79310 392 ft 15 kts 45°
2026-05-07 00:14 35.88006 -78.79211 392 ft 18 kts 45°
2026-05-07 00:14 35.88101 -78.79094 392 ft 20 kts 45°
2026-05-07 00:14 35.88204 -78.78961 391 ft 23 kts 45°
2026-05-07 00:14 35.88315 -78.78824 391 ft 17 kts 45°
2026-05-07 00:15 35.88401 -78.78717 391 ft 19 kts 45°
2026-05-07 00:15 35.88485 -78.78614 392 ft 16 kts 45°
2026-05-07 00:15 35.88567 -78.78513 392 ft 13 kts 45°
2026-05-07 00:15 35.88605 -78.78466 392 ft 8 kts 45°
2026-05-07 00:16 35.88651 -78.78409 392 ft 11 kts 45°
2026-05-07 00:16 35.88714 -78.78332 392 ft 14 kts 45°
2026-05-07 00:16 35.88788 -78.78241 392 ft 16 kts 45°
2026-05-07 00:16 35.88854 -78.78159 392 ft 8 kts 45°
2026-05-07 00:17 35.88899 -78.78102 392 ft 10 kts 45°
2026-05-07 00:17 35.88955 -78.78033 391 ft 12 kts 48°
2026-05-07 00:17 35.88991 -78.77933 392 ft 12 kts 71°
2026-05-07 00:17 35.89043 -78.77845 392 ft 11 kts 44°
2026-05-07 00:18 35.89096 -78.77780 392 ft 11 kts 45°
2026-05-07 00:18 35.89137 -78.77729 392 ft 9 kts 45°
2026-05-07 00:18 35.89179 -78.77677 392 ft 7 kts 45°
2026-05-07 00:18 35.89198 -78.77654 392 ft 0 kts 45°
2026-05-07 00:20 35.89206 -78.77646 392 ft 4 kts 33°
2026-05-07 00:20 35.89240 -78.77653 392 ft 6 kts 328°
2026-05-07 00:20 35.89258 -78.77674 392 ft 0 kts 315°
2026-05-07 00:24 35.89259 -78.77675 392 ft 1 kts 315°
2026-05-07 00:24 35.89285 -78.77707 392 ft 8 kts 315°
2026-05-07 00:25 35.89318 -78.77748 392 ft 8 kts 315°
2026-05-07 00:25 35.89363 -78.77808 393 ft 8 kts 299°
2026-05-07 00:25 35.89341 -78.77858 392 ft 0 kts 224°
2026-05-07 00:26 35.89333 -78.77868 392 ft 7 kts 224°
2026-05-07 00:26 35.89163 -78.78077 391 ft 70 kts 225°
2026-05-07 00:26 35.88673 -78.78683 393 ft 127 kts 225°
2026-05-07 00:27 35.87945 -78.79581 520 ft 159 kts 225°
2026-05-07 00:27 35.87164 -78.80536 1118 ft 159 kts 224°
2026-05-07 00:27 35.86383 -78.81493 1777 ft 157 kts 226°
2026-05-07 00:27 35.85601 -78.82462 2278 ft 167 kts 227°
2026-05-07 00:28 35.84732 -78.83550 2522 ft 190 kts 226°
2026-05-07 00:28 35.83743 -78.84786 2811 ft 215 kts 227°
2026-05-07 00:28 35.82636 -78.86173 3258 ft 236 kts 229°
2026-05-07 00:28 35.81851 -78.87953 4042 ft 242 kts 257°
2026-05-07 00:29 35.81931 -78.90019 4967 ft 248 kts 285°
2026-05-07 00:29 35.82841 -78.91868 5697 ft 259 kts 306°
2026-05-07 00:30 35.86603 -78.96647 6007 ft 258 kts 310°
2026-05-07 00:30 35.87869 -78.98211 6008 ft 258 kts 310°
2026-05-07 00:30 35.89226 -78.99700 6576 ft 266 kts 322°
2026-05-07 00:30 35.90995 -79.00514 7406 ft 282 kts 347°
2026-05-07 00:31 35.92987 -79.00208 8184 ft 302 kts 18°
2026-05-07 00:31 35.94708 -78.98637 8948 ft 318 kts 47°
2026-05-07 00:31 35.96064 -78.96453 9734 ft 323 kts 51°
2026-05-07 00:31 35.97374 -78.94160 10344 ft 334 kts 52°
2026-05-07 00:32 35.98733 -78.91722 10580 ft 356 kts 53°
2026-05-07 00:32 36.00174 -78.89129 10829 ft 375 kts 53°
2026-05-07 00:32 36.01686 -78.86432 11232 ft 386 kts 52°
2026-05-07 00:32 36.03233 -78.83698 11774 ft 391 kts 52°
2026-05-07 00:33 36.04804 -78.80945 12187 ft 394 kts 52°
2026-05-07 00:33 36.06389 -78.78177 12913 ft 396 kts 52°
2026-05-07 00:33 36.07984 -78.75392 13619 ft 398 kts 51°
2026-05-07 00:33 36.09588 -78.72593 14233 ft 402 kts 51°
2026-05-07 00:34 36.11215 -78.69749 14815 ft 406 kts 51°
2026-05-07 00:34 36.12849 -78.66888 15357 ft 410 kts 51°
2026-05-07 00:34 36.14499 -78.63995 15894 ft 414 kts 51°
2026-05-07 00:34 36.16169 -78.61066 16443 ft 418 kts 51°
2026-05-07 00:35 36.17856 -78.58107 16994 ft 423 kts 50°
2026-05-07 00:35 36.19533 -78.55158 17546 ft 427 kts 50°
2026-05-07 00:35 36.21254 -78.52133 18111 ft 432 kts 50°
2026-05-07 00:35 36.23016 -78.49032 18635 ft 436 kts 50°
2026-05-07 00:36 36.24745 -78.45988 19156 ft 440 kts 50°
2026-05-07 00:36 36.26578 -78.42876 19703 ft 441 kts 45°
2026-05-07 00:36 36.28671 -78.40183 20231 ft 438 kts 35°
2026-05-07 00:36 36.31067 -78.37869 20757 ft 438 kts 30°
2026-05-07 00:37 36.33518 -78.35603 21265 ft 441 kts 30°
2026-05-07 00:37 36.35986 -78.33315 21755 ft 445 kts 30°
2026-05-07 00:37 36.38473 -78.31004 22229 ft 448 kts 31°
2026-05-07 00:37 36.40976 -78.28678 22692 ft 452 kts 31°
2026-05-07 00:38 36.43500 -78.26326 23143 ft 455 kts 31°
2026-05-07 00:38 36.46038 -78.23953 23577 ft 459 kts 31°
2026-05-07 00:38 36.48593 -78.21559 23964 ft 462 kts 31°
2026-05-07 00:38 36.51164 -78.19145 24344 ft 464 kts 31°
2026-05-07 00:39 36.53747 -78.16713 24714 ft 467 kts 31°
2026-05-07 00:39 36.56344 -78.14262 25070 ft 470 kts 31°
2026-05-07 00:39 36.58958 -78.11794 25435 ft 473 kts 31°
2026-05-07 00:39 36.61581 -78.09317 25776 ft 475 kts 32°
2026-05-07 00:40 36.64224 -78.06816 26116 ft 478 kts 32°
2026-05-07 00:40 36.66877 -78.04299 26460 ft 481 kts 32°
2026-05-07 00:40 36.69547 -78.01772 26796 ft 484 kts 32°
2026-05-07 00:40 36.72233 -77.99227 27134 ft 486 kts 32°
2026-05-07 00:41 36.74935 -77.96664 27454 ft 489 kts 32°
2026-05-07 00:41 36.77648 -77.94085 27730 ft 492 kts 32°
2026-05-07 00:41 36.80338 -77.91410 28046 ft 499 kts 37°
2026-05-07 00:41 36.82763 -77.88268 28346 ft 507 kts 47°
2026-05-07 00:42 36.84863 -77.84685 28640 ft 513 kts 52°
2026-05-07 00:42 36.86905 -77.81018 28935 ft 516 kts 52°
2026-05-07 00:42 36.88956 -77.77332 29230 ft 519 kts 52°
2026-05-07 00:42 36.91024 -77.73621 29537 ft 520 kts 52°
2026-05-07 00:43 36.93089 -77.69916 29966 ft 520 kts 52°
2026-05-07 00:43 36.95153 -77.66203 30328 ft 520 kts 51°
2026-05-07 00:43 36.97219 -77.62485 30646 ft 521 kts 51°
2026-05-07 00:43 36.99288 -77.58753 30963 ft 522 kts 51°
2026-05-07 00:44 37.01360 -77.55019 31278 ft 524 kts 50°
2026-05-07 00:44 37.03437 -77.51274 31589 ft 525 kts 50°
2026-05-07 00:44 37.05522 -77.47511 31911 ft 525 kts 49°
2026-05-07 00:44 37.07786 -77.43966 32244 ft 518 kts 39°
2026-05-07 00:45 37.10387 -77.40908 32574 ft 508 kts 29°
2026-05-07 00:45 37.13244 -77.38404 32937 ft 496 kts 20°
2026-05-07 00:45 37.16269 -77.36464 33337 ft 481 kts 11°
2026-05-07 00:45 37.19333 -77.35064 33743 ft 472 kts
2026-05-07 00:46 37.22436 -77.33733 34156 ft 471 kts
2026-05-07 00:46 37.25528 -77.32393 34548 ft 469 kts
2026-05-07 00:46 37.28606 -77.31048 34848 ft 469 kts
2026-05-07 00:46 37.31684 -77.29702 34912 ft 469 kts
2026-05-07 00:47 37.37857 -77.27013 34918 ft 470 kts
2026-05-07 00:47 37.44039 -77.24321 34915 ft 470 kts
2026-05-07 00:48 37.50231 -77.21632 34918 ft 471 kts
2026-05-07 00:48 37.55420 -77.19355 34915 ft 472 kts
2026-05-07 00:49 37.61630 -77.16639 34919 ft 472 kts
2026-05-07 00:49 37.67843 -77.13901 34922 ft 474 kts
2026-05-07 00:50 37.70906 -77.12176 34928 ft 491 kts 15°
2026-05-07 00:50 37.73910 -77.10119 34926 ft 492 kts 16°